Regional Weather Roundup
Issued by NWS

Home | Current Version | Previous Version | Text Only | Print | Product List | Glossary On
Versions: 1 2 3 4 5 6 7 8 9 10 11 12 13 14 15 16 17 18 19 20 21 22 23 24 25 26 27 28 29 30 31 32 33 34 35 36 37 38 39 40 41 42 43 44 45 46 47 48 49 50
000
ASUS44 KJAN 300310
RWRMS

MISSISSIPPI HOURLY WEATHER ROUNDUP
NATIONAL WEATHER SERVICE JACKSON MS
1000 PM CDT SAT APR 29 2017

NOTE: "FAIR: INDICATES FEW OR NO CLOUDS BELOW 12,000 FEET WITH NO
SIGNIFICANT WEATHER AND/OR OBSTRUCTIONS TO VISIBILITY.

MSZ001>002-007>008-010>013-018>021-025>028-034>036-300400-
NORTHWEST MISSISSIPPI

CITY           SKY/WX    TMP DP  RH WIND       PRES   REMARKS
BATESVILLE     FAIR      79  66  65 SE6       29.84S
CLARKSDALE       N/A     75  75 100 SE9       29.80R
CLEVELAND      FAIR      78  74  88 SE16G22   29.80R
GREENWOOD      PTCLDY    79  70  74 SE13      29.82F
GREENVILLE     MOCLDY    77  69  76 SE17      29.78R
OXFORD         FAIR      77  64  65 SE13G21   29.89R
TUNICA         CLOUDY    70  68  94 E8        29.82S
WINONA         MOCLDY    78  69  73 SE13G22   29.85F
$$

MSZ003>006-009-014>017-022>024-029>033-037>039-300400-
NORTHEAST MISSISSIPPI

CITY           SKY/WX    TMP DP  RH WIND       PRES   REMARKS
COLUMBUS AFB   NOT AVBL
CORINTH        MOCLDY    79  64  61 SE12      29.92R
GOLDN TRIANGLE CLOUDY    79  63  57 SE17      29.89S
STARKVILLE     FAIR      77  66  69 S15G21    29.93R
TUPELO         CLOUDY    79  64  60 SE14G21   29.90S
$$

MSZ040-058-300400-
CENTRAL MISSISSIPPI

CITY           SKY/WX    TMP DP  RH WIND       PRES   REMARKS
JACKSON INTL   CLOUDY    79  70  74 S18G26    29.87R
JACKSON HAWKNS CLOUDY    78  69  73 S20       29.87R
MADISON        MOCLDY    77  70  78 SE8       29.87R
MERIDIAN KEY   CLOUDY    79  70  74 SE14      29.92R
MERIDIAN NAS   MOCLDY    78  66  66 SE13G22   29.95R
RAYMOND        MOCLDY    79  72  78 SE9G23    29.84R
VICKSBURG VKS  CLOUDY    81  70  69 S14G28    29.79R
$$

MSZ059>079-300400-
SOUTH MISSISSIPPI

CITY           SKY/WX    TMP DP  RH WIND       PRES   REMARKS
HATTIESBURG    CLOUDY    78  72  81 SE13      29.93R
LAUREL         CLOUDY    76  73  91 SE10G16   29.92R
MCCOMB         CLOUDY    78  70  76 S20G29    29.88R
NATCHEZ        CLOUDY    80  71  74 S21G29    29.81R
PINE BELT      CLOUDY    77  70  78 SE14      29.93R
$$

MSZ080>082-300400-
COASTAL MISSISSIPPI

CITY           SKY/WX    TMP DP  RH WIND       PRES   REMARKS
BILOXI         CLOUDY    78  74  87 S20G29    29.92R
PASCAGOULA     CLOUDY    77  72  84 SE20G28   29.93S
GULFPORT       CLOUDY    79  75  87 SE23G32   29.92R
$$

LAZ007>009-015>016-023>026-300400-
NORTHEAST LOUISIANA

CITY           SKY/WX    TMP DP  RH WIND       PRES   REMARKS
BASTROP        CLOUDY    77  74  88 SE7       29.75R
TALLULAH/VBURG MOCLDY    80  70  71 S14G24    29.81R
VIDALIA        FAIR      80  71  74 SE18G29   29.79R
$$



USA.gov is the U.S. government's official web portal to all federal, state and local government web resources and services.